STARLINK-33782, 64332

Orbit data source: Space-Track

STARLINK-33782, 64332 is a payload satellite owned by SpaceX/Seattle (US) in LEO that was launched on Tue, 10 Jun 2025 UTC via an FALCON 9 launch vehicle from the Air Force Eastern Test Range (AFETR). Payload-class satellites include a variety of spacecraft equipped with specific instruments for various scientific and technological missions. These include communications satellites like Starlink; space stations such as the ISS; scientific satellites like the Hubble; Earth observation satellites from companies like Planet Labs, Umbra, and HawkEye 360; GPS; miniature CubeSats for education and research; and military/defense satellites.

Loading next visibility...
Identifier
64332, 2025-124R
Orbit
LEO
Country
Flag of USUS
Related business
Manufacturer
SpaceX/Seattle
Mission
Operational Commercial Communications
Bus & Motor
STARLINK V2MO, Unknown motor
Mass
575 kg wet, ~530 kg dry
Launch date (UTC)
2025-06-10 (9 months ago)
Launch vehicle
FALCON 9
Launch site
Air Force Eastern Test Range (AFETR)
Object type
Payload
Rocket body
Debris
Shape & HBR
Box + 2 Pan, 17.7 m
Radar Cross Section
36.964 m², Large (>1 m²)

Expand to show TLE details & history
Last TLE update: 11 hours ago

TLE from 11 hours ago
0 STARLINK-33782
1 64332U 25124R   26074.45612799  .00034745  00000-0  12652-2 0  9995
2 64332  42.9988  89.0251 0000281  22.8765 337.2099 15.27605371 42664
Epoch: 2026-03-15T10:56Z
TLE epoch observation values (Epoch: 2026-03-15T10:56:49.458Z)
Latitude
-0.00002°
Longitude
111.75631°
Altitude
482.571 km
Speed
7.626 km/s
True Right ascension
05h 56m 06s
True Declination
0° 00' 00"
Sunlit
Object was in daylight at epoch
Visualization orbit readout
Latitude
Unknown
Longitude
Unknown
Altitude
Unknown
Speed
Unknown
Apparent Right ascension
Unknown
Apparent Declination
Unknown
Sunlit
N/A
Visualization observer readout
Local Sidereal Time
02:46:07
Azimuth
Unknown
Elevation
Unknown
Doppler factor
Unknown
Orbital elements
Apogee altitude
485.111 km
Perigee altitude
484.726 km
Semi-major axis
6,863.056 km
Eccentricity
0.00003
Inclination
42.9988°
RAAN
89.0251°
Arg. of periapsis
22.8765°
True anomaly
337.20865°
Mean anomaly
337.2099°
Eccentric anomaly
337.20928°
Mean motion
3.81739 °/min
Orbital period
94.31 mins
BSTAR
0.0012652
Loading maneuver chart data...
Computing Atmospheric mass density...
Loading historical data...
Loading historical data...
Loading historical data...
Loading historical data...
Loading historical data...
Loading historical data...
Loading historical data...

Documentation

Showing up to 5 results
|